Wind_Speed
14 14 15 14 14 13 13 13 13 11 11 12 12 12 12 11 11 10 9 9 9 10 10 11 12 13 15 16 17 19 20 20 21 22 23 24 24 24 24 24 24 24 22 22
14 15 15 15 14 14 14 14 13 12 11 13 12 12 13 13 12 11 10 10 10 10 11 11 12 13 15 16 17 18 19 20 20 21 22 23 23 24 24 23 23 23 23 22
16 17 17 15 14 15 15 15 15 14 13 14 13 13 14 14 13 12 11 11 11 11 11 12 12 13 14 16 17 18 18 19 20 21 21 22 22 23 23 22 22 23 22 21
17 18 19 15 16 17 17 16 16 15 15 15 14 14 14 14 13 13 12 12 12 12 12 12 13 14 15 16 16 17 18 19 20 20 21 21 21 22 22 22 21 22 22 21
17 18 18 16 17 18 17 16 16 16 15 15 15 15 14 14 14 13 13 13 13 12 12 13 13 14 15 16 16 17 18 18 19 20 20 21 21 21 21 21 21 21 21 21
18 18 17 15 17 18 17 16 16 17 16 16 16 16 15 15 15 14 14 14 14 13 13 13 14 14 15 16 17 17 18 18 19 20 20 20 20 20 21 21 21 21 20 20
18 18 16 15 16 17 17 16 17 18 18 17 17 17 17 16 15 15 15 15 15 14 14 14 15 15 16 16 17 17 18 18 19 20 20 20 20 20 20 20 21 21 20 20
19 18 16 17 17 17 17 18 18 18 18 19 19 18 18 17 17 16 16 16 16 15 15 15 16 16 16 17 17 18 18 19 19 20 20 20 20 20 20 20 21 21 20 20
20 19 19 19 19 19 20 19 19 19 19 19 20 19 19 18 18 18 17 17 17 17 17 17 17 17 17 18 18 18 19 19 20 20 20 20 20 21 21 21 21 21 20 20
23 21 21 21 21 22 22 22 21 21 21 21 21 20 20 20 20 19 19 18 18 18 18 18 18 18 19 19 19 19 20 20 20 20 20 20 21 21 22 22 21 21 20 20
26 24 25 24 24 24 24 24 23 23 23 22 22 22 21 21 21 20 20 20 20 20 20 20 20 20 20 20 20 21 21 21 21 21 21 21 22 22 22 23 22 22 21 21
29 28 29 27 27 27 26 26 25 25 24 24 23 23 23 23 22 22 22 22 21 21 21 21 21 21 21 21 22 22 22 22 22 22 22 23 23 23 23 24 23 22 22 22
33 32 32 30 29 29 29 28 28 27 27 26 25 25 25 24 24 24 24 24 23 23 23 23 23 23 23 23 23 23 23 23 23 24 24 24 25 25 26 26 25 24 23 23
36 35 34 33 32 32 31 31 30 29 29 28 28 27 27 27 27 26 26 26 26 25 25 25 25 25 25 24 24 24 24 24 24 25 25 26 26 27 27 28 27 26 25 25
37 37 36 36 35 34 34 33 32 31 30 30 30 30 30 29 29 29 29 28 28 27 27 27 27 27 26 26 26 26 26 26 26 26 27 27 27 28 29 29 28 27 27 27
39 39 38 37 37 37 36 36 34 33 33 32 32 32 32 32 31 31 31 30 30 29 29 29 28 28 28 28 27 27 27 28 28 28 28 29 29 29 29 29 28 28 28 28
41 40 40 39 38 38 38 37 37 36 35 35 35 35 34 34 33 33 33 32 32 31 31 30 30 30 30 29 29 29 29 30 30 30 30 30 31 30 30 30 29 30 30 30
42 41 41 41 40 40 39 39 39 38 37 37 37 36 36 36 35 35 35 34 34 33 33 32 32 32 32 32 32 32 32 32 32 32 32 32 32 32 32 32 32 32 32 32
42 42 41 41 41 41 41 40 40 40 39 39 38 38 38 37 37 37 37 36 36 35 35 35 34 34 34 34 34 34 34 34 34 34 34 34 34 34 34 34 34 34 35 35
42 43 43 42 41 41 41 41 41 41 41 40 40 40 39 39 39 39 38 38 38 37 37 37 37 36 36 36 37 37 37 37 37 37 36 36 36 36 36 36 36 36 37 37
43 42 42 41 41 41 41 41 41 41 40 40 41 41 41 41 40 40 40 40 39 39 39 39 39 39 39 39 39 39 39 39 39 38 38 38 38 37 38 38 38 38 39 39
42 42 42 42 41 41 41 41 41 41 41 41 41 41 41 42 42 42 41 41 41 41 41 41 41 41 41 40 40 40 40 40 40 40 40 40 39 39 40 40 40 40 40 41
42 42 42 42 42 42 42 41 41 41 41 41 41 42 42 42 42 42 43 42 42 42 42 42 42 42 42 42 41 41 41 41 41 41 41 41 41 41 42 42 42 42 42 42
43 43 42 42 42 42 42 42 42 42 42 42 42 42 42 42 43 43 43 43 43 43 43 43 43 43 43 42 42 42 41 41 42 42 42 42 43 43 43 44 44 44 43 43
42 42 42 42 42 42 42 42 43 43 43 43 43 43 43 43 43 43 43 43 44 44 44 43 44 43 43 42 42 42 42 43 43 43 43 44 44 44 44 45 44 44 44 44
41 41 41 41 42 42 41 41 42 43 44 44 44 43 43 43 43 43 44 44 44 45 45 45 44 44 43 43 43 43 43 44 44 44 44 44 44 45 45 45 45 44 44 44
41 41 41 41 41 41 41 40 41 41 42 43 44 43 43 43 43 43 43 43 43 44 44 45 45 44 44 44 44 44 44 44 44 44 44 44 45 45 44 44 44 43 43 43
Wind_Direction
237 240 243 246 252 260 265 265 266 264 262 259 254 249 249 251 254 259 268 279 290 301 311 320 328 334 339 342 345 347 350 353 355 358 360 3 5 6 7 8 10 11 11 11
244 248 251 252 256 262 265 264 264 262 262 260 256 252 252 253 254 257 265 276 287 296 305 314 322 328 333 338 341 343 346 349 351 354 357 360 2 4 5 6 8 9 10 11
250 252 256 258 261 263 264 264 266 264 261 259 257 254 254 255 256 257 264 274 284 293 301 309 316 322 327 332 337 339 342 345 347 350 353 356 358 1 3 4 5 7 8 8
254 252 255 260 259 261 264 264 264 262 260 258 256 255 255 255 256 259 265 272 281 288 296 304 311 316 322 327 332 336 339 341 343 346 350 352 354 357 359 1 2 4 5 6
260 257 257 259 261 263 263 261 262 262 261 259 257 257 256 257 258 260 264 269 276 284 292 299 305 311 316 321 326 330 334 337 340 342 345 348 350 353 355 356 357 358 360 1
264 264 263 261 261 262 262 261 261 261 260 260 258 258 257 257 257 258 262 267 273 280 288 294 300 305 311 316 321 325 328 332 336 339 341 343 345 347 350 352 352 353 353 355
265 265 266 263 260 258 259 257 256 258 259 260 259 258 258 258 257 258 262 266 271 277 284 290 295 300 306 311 316 320 323 327 330 334 337 338 340 342 344 347 348 349 349 349
264 263 263 260 258 256 256 255 256 256 258 259 259 257 257 257 257 259 261 265 270 275 281 286 291 296 301 306 311 316 319 322 326 329 331 334 336 338 339 341 343 344 344 344
262 262 260 259 257 256 255 255 256 257 258 258 257 256 255 255 257 258 261 264 268 273 278 283 287 292 297 302 307 311 315 318 321 324 326 329 331 334 336 337 338 339 340 340
261 260 259 257 256 255 255 255 255 257 258 257 256 255 255 256 257 257 259 263 267 271 276 281 285 290 294 299 304 308 311 314 317 319 322 324 326 328 331 332 333 334 335 336
260 258 255 254 255 254 254 256 257 257 257 256 256 255 254 255 257 258 260 263 267 271 275 279 283 288 292 296 301 304 307 310 313 315 317 319 322 324 325 326 327 328 329 330
258 256 255 253 254 255 255 256 256 255 255 255 255 254 254 256 258 259 261 263 266 269 273 277 281 286 290 294 297 300 304 306 309 311 313 315 317 319 320 321 321 321 321 322
257 255 255 254 254 255 255 255 255 255 254 254 254 254 255 257 259 260 262 264 266 269 272 276 280 283 287 291 294 297 300 303 305 307 308 310 312 314 316 316 316 316 316 316
257 256 255 254 254 254 255 255 256 256 255 254 254 255 256 257 259 260 262 264 266 269 272 275 278 281 285 288 291 294 297 299 301 303 305 306 308 310 312 313 313 312 312 312
256 257 256 254 253 253 254 255 256 256 255 255 255 256 257 258 260 261 262 264 267 269 272 274 277 280 283 286 288 290 293 296 298 301 302 303 304 306 308 309 309 310 310 310
255 256 256 255 254 253 253 254 255 255 255 255 256 256 257 258 260 261 263 265 267 269 271 273 275 278 281 283 285 288 291 293 295 297 299 300 301 303 305 306 306 307 307 307
256 255 256 256 255 254 253 253 254 255 255 255 256 256 257 258 259 261 263 264 266 268 270 272 274 277 279 281 283 286 288 290 292 294 296 298 299 300 302 303 304 304 305 305
258 256 255 254 254 254 253 253 254 255 255 256 256 257 257 258 259 260 262 263 265 267 269 271 273 275 277 279 281 284 286 289 291 292 294 296 297 298 299 300 301 302 303 303
258 257 256 256 255 255 254 254 254 255 255 255 256 256 257 258 259 260 261 262 264 266 268 269 271 273 276 278 280 282 285 287 289 291 292 294 295 296 296 298 299 300 301 301
257 257 256 255 255 255 255 255 255 255 255 255 255 256 257 258 259 259 260 262 263 265 267 269 270 272 274 276 279 281 284 286 288 289 291 292 293 294 295 296 298 299 299 300
256 257 256 255 254 254 254 254 254 255 255 255 256 256 257 258 258 259 260 261 263 265 266 268 270 272 274 276 278 280 283 285 286 287 289 291 292 293 294 295 296 297 298 298
256 257 256 255 254 254 254 254 254 254 255 255 255 256 257 258 259 259 260 262 263 265 266 268 270 272 273 275 278 280 282 283 285 286 288 289 291 292 294 295 296 296 297 298
255 256 256 256 256 255 255 255 254 254 254 255 255 256 257 258 260 261 261 262 263 264 266 267 269 271 273 275 277 278 280 282 284 285 287 289 290 292 293 294 295 295 296 296
255 255 256 256 256 256 255 255 255 255 254 254 255 256 257 259 260 261 262 262 263 264 265 266 268 271 272 274 276 277 279 281 283 285 286 288 290 291 292 294 294 295 295 295
256 256 256 255 255 255 255 255 255 255 254 254 255 256 257 258 259 260 261 262 262 263 265 267 268 269 270 272 275 277 279 280 282 284 286 288 289 290 292 293 293 294 294 294
257 257 256 256 256 255 255 255 254 254 255 255 256 257 257 258 259 260 261 261 262 262 264 265 267 268 270 272 274 276 278 280 282 284 286 287 288 290 291 292 292 293 293 294
259 257 256 255 255 255 255 255 255 255 255 254 254 256 257 258 259 260 260 261 262 263 264 265 267 269 271 272 274 276 278 280 281 283 284 286 288 289 290 291 291 292 293 294
Height
5819 5820 5821 5823 5824 5825 5825 5826 5827 5828 5828 5828 5828 5829 5829 5829 5830 5830 5830 5830 5829 5828 5827 5826 5824 5822 5819 5817 5814 5811 5807 5803 5800 5795 5791 5786 5782 5777 5772 5767 5762 5758 5753 5749
5816 5817 5818 5820 5821 5821 5822 5823 5823 5824 5825 5825 5825 5825 5826 5826 5827 5827 5827 5827 5826 5825 5824 5823 5821 5820 5817 5815 5812 5809 5806 5802 5799 5795 5791 5786 5782 5777 5773 5768 5764 5759 5755 5750
5813 5814 5815 5817 5818 5818 5819 5819 5820 5820 5822 5821 5822 5822 5822 5823 5823 5824 5824 5824 5823 5822 5821 5820 5819 5817 5815 5813 5810 5807 5804 5801 5797 5794 5790 5786 5782 5777 5773 5769 5764 5760 5756 5752
5809 5811 5811 5816 5814 5814 5815 5816 5816 5816 5817 5817 5818 5818 5819 5819 5820 5820 5820 5820 5820 5819 5818 5817 5816 5814 5812 5810 5808 5805 5802 5799 5796 5792 5789 5785 5781 5777 5773 5769 5765 5761 5757 5753
5805 5806 5807 5810 5809 5809 5810 5811 5812 5812 5812 5813 5813 5814 5815 5815 5816 5816 5816 5816 5816 5815 5815 5814 5812 5811 5809 5807 5805 5803 5800 5797 5794 5790 5787 5783 5780 5776 5772 5769 5765 5761 5757 5753
5801 5801 5803 5806 5805 5804 5806 5807 5807 5807 5808 5808 5809 5810 5811 5811 5812 5812 5812 5812 5812 5812 5811 5810 5809 5808 5806 5804 5802 5800 5797 5794 5791 5788 5785 5782 5778 5775 5771 5768 5764 5760 5756 5753
5797 5797 5798 5800 5800 5800 5803 5803 5803 5802 5803 5804 5804 5806 5807 5807 5807 5807 5808 5808 5808 5807 5807 5806 5805 5804 5802 5801 5799 5796 5794 5791 5788 5786 5782 5779 5776 5773 5770 5766 5763 5759 5756 5752
5792 5793 5796 5794 5795 5796 5796 5797 5797 5798 5798 5799 5800 5800 5801 5802 5802 5803 5803 5803 5803 5803 5802 5802 5801 5800 5798 5797 5795 5793 5790 5788 5785 5782 5780 5777 5774 5771 5767 5764 5761 5757 5754 5751
5788 5790 5789 5789 5789 5790 5790 5791 5792 5792 5793 5794 5794 5795 5796 5797 5797 5798 5798 5798 5798 5798 5798 5797 5796 5795 5794 5792 5790 5788 5786 5784 5781 5779 5776 5773 5771 5768 5765 5761 5758 5755 5751 5748
5781 5782 5783 5783 5783 5784 5784 5785 5786 5787 5787 5788 5789 5790 5791 5791 5792 5792 5792 5793 5793 5793 5792 5792 5791 5790 5789 5787 5785 5784 5782 5779 5777 5775 5772 5770 5767 5764 5761 5758 5755 5752 5749 5746
5773 5775 5776 5776 5776 5777 5778 5779 5780 5781 5781 5782 5783 5784 5785 5785 5786 5786 5787 5787 5787 5787 5787 5786 5785 5784 5783 5782 5780 5778 5776 5774 5772 5770 5767 5765 5763 5760 5757 5754 5751 5748 5745 5742
5765 5767 5767 5769 5769 5769 5770 5772 5772 5773 5774 5775 5776 5777 5778 5779 5779 5780 5780 5780 5781 5781 5780 5780 5779 5778 5777 5776 5774 5773 5771 5769 5767 5765 5762 5760 5757 5755 5752 5750 5747 5744 5741 5738
5755 5756 5757 5759 5761 5762 5762 5764 5765 5766 5767 5768 5769 5770 5771 5772 5772 5773 5773 5774 5774 5774 5773 5773 5772 5772 5771 5769 5768 5766 5765 5763 5761 5759 5756 5754 5752 5749 5746 5744 5741 5738 5736 5733
5744 5745 5747 5750 5751 5752 5753 5755 5756 5757 5759 5760 5761 5762 5763 5764 5764 5765 5766 5766 5766 5766 5766 5766 5765 5764 5764 5762 5761 5760 5758 5757 5755 5753 5750 5748 5745 5743 5740 5737 5734 5732 5729 5727
5733 5733 5736 5738 5740 5742 5743 5745 5746 5748 5750 5751 5752 5753 5754 5755 5756 5756 5757 5758 5758 5758 5758 5758 5757 5757 5756 5755 5754 5753 5751 5750 5748 5746 5744 5741 5739 5736 5734 5731 5728 5725 5722 5720
5721 5722 5724 5726 5729 5731 5732 5734 5736 5738 5739 5741 5742 5743 5744 5745 5746 5747 5748 5749 5749 5749 5750 5749 5749 5748 5748 5747 5746 5745 5743 5742 5740 5739 5736 5734 5732 5729 5726 5724 5721 5718 5715 5713
5709 5711 5712 5714 5717 5719 5721 5723 5725 5727 5728 5730 5731 5732 5734 5735 5736 5737 5738 5739 5740 5740 5740 5740 5740 5740 5739 5738 5737 5736 5735 5734 5732 5730 5728 5726 5724 5721 5718 5716 5713 5710 5708 5705
5695 5697 5700 5702 5704 5706 5709 5711 5713 5715 5717 5719 5720 5722 5723 5724 5726 5727 5728 5728 5729 5730 5730 5731 5730 5730 5730 5729 5728 5727 5726 5725 5723 5721 5719 5717 5715 5712 5710 5707 5705 5702 5699 5696
5681 5684 5686 5689 5691 5694 5696 5698 5701 5703 5704 5706 5708 5710 5712 5713 5714 5716 5717 5718 5719 5719 5720 5720 5720 5720 5720 5719 5718 5717 5716 5715 5713 5711 5709 5707 5705 5702 5700 5698 5695 5692 5689 5687
5668 5670 5673 5675 5678 5680 5683 5686 5688 5690 5692 5694 5696 5697 5699 5701 5702 5704 5705 5706 5707 5708 5709 5709 5709 5709 5709 5708 5708 5707 5706 5704 5702 5701 5699 5697 5694 5692 5690 5687 5685 5682 5679 5676
5655 5657 5659 5662 5665 5667 5669 5672 5675 5677 5679 5681 5683 5685 5686 5688 5690 5691 5693 5694 5695 5696 5697 5697 5698 5697 5697 5697 5696 5695 5694 5693 5691 5690 5688 5686 5684 5681 5679 5676 5674 5671 5668 5665
5642 5644 5646 5649 5651 5654 5656 5659 5661 5664 5666 5668 5670 5672 5674 5676 5677 5679 5681 5682 5683 5684 5684 5685 5685 5685 5685 5685 5684 5683 5682 5681 5680 5678 5676 5674 5672 5670 5667 5665 5662 5659 5656 5653
5629 5631 5633 5636 5638 5641 5643 5645 5648 5650 5653 5655 5657 5659 5661 5663 5664 5666 5668 5669 5670 5671 5671 5672 5672 5672 5672 5672 5672 5671 5670 5669 5667 5666 5664 5662 5660 5658 5655 5652 5650 5647 5644 5640
5616 5618 5620 5623 5625 5628 5630 5632 5635 5637 5639 5641 5643 5646 5648 5649 5651 5653 5654 5655 5657 5657 5658 5658 5659 5659 5659 5659 5659 5658 5657 5656 5655 5653 5652 5650 5648 5645 5643 5640 5637 5634 5631 5627
5603 5605 5607 5609 5612 5614 5616 5619 5621 5623 5625 5627 5630 5632 5634 5636 5638 5639 5640 5642 5643 5644 5645 5645 5646 5646 5646 5646 5646 5645 5644 5643 5642 5640 5639 5637 5635 5632 5629 5627 5624 5621 5617 5614
5590 5592 5594 5596 5598 5601 5603 5605 5607 5609 5612 5614 5616 5618 5620 5622 5623 5625 5626 5628 5629 5630 5631 5632 5632 5632 5633 5632 5632 5632 5631 5630 5628 5627 5625 5624 5621 5619 5616 5613 5610 5607 5604 5601
5576 5579 5581 5583 5585 5587 5589 5591 5593 5595 5598 5600 5602 5604 5606 5608 5609 5611 5612 5614 5615 5616 5617 5618 5618 5619 5619 5619 5618 5618 5617 5616 5615 5614 5612 5610 5608 5605 5602 5599 5597 5594 5590 5587